Back to catalog

COSMOS 1719

AliveMilitaryLEO
NORAD 16452·PAYLOAD·🇷🇺 Russia

Launched Jan 9, 1986 from Plesetsk Cosmodrome

Loading…

Next Passes (next 24 hours)

TLE

FreshSource: Space-Track

Epoch: Sep 14, 2026, 20:07 UTC

1 16452U 86002D   26257.83850139 -.00000013  00000-0  20668-4 0  9994
2 16452  73.9886 209.2464 0019480 237.3713 149.9475 12.48881313854708

Track COSMOS 1719 in real time with AllMySat

Download on the App Store